Time,TemperatureF,DewpointF,PressureIn,WindDirection,WindDirectionDegrees,WindSpeedMPH,WindSpeedGustMPH,Humidity,HourlyPrecipIn,Conditions,Clouds,dailyrainin,SoftwareType,DateUTC
2013-01-15 00:00:00,28.5,24.0,30.25,North,11,6.0,11.0,83,0.00,,,0.00,Wunderground v.1.15,2013-01-15 06:00:00,
2013-01-15 00:10:00,28.4,23.9,30.25,NNE,28,8.0,8.0,83,0.00,,,0.00,Wunderground v.1.15,2013-01-15 06:10:00,
2013-01-15 00:20:00,28.4,23.9,30.25,NE,42,7.0,7.0,83,0.00,,,0.00,Wunderground v.1.15,2013-01-15 06:20:00,
2013-01-15 00:35:00,28.2,23.7,30.25,NNW,338,5.0,11.0,83,0.00,,,0.00,Wunderground v.1.15,2013-01-15 06:35:00,
2013-01-15 00:40:00,28.2,23.7,30.25,NNW,338,6.0,11.0,83,0.00,,,0.00,Wunderground v.1.15,2013-01-15 06:40:00,
2013-01-15 00:50:00,28.1,23.6,30.25,NNE,28,6.0,6.0,83,0.00,,,0.00,Wunderground v.1.15,2013-01-15 06:50:00,
2013-01-15 01:00:00,28.0,23.5,30.25,North,11,7.0,7.0,83,0.00,,,0.00,Wunderground v.1.15,2013-01-15 07:00:00,
2013-01-15 01:10:00,28.0,23.5,30.25,NE,47,8.0,8.0,83,0.00,,,0.00,Wunderground v.1.15,2013-01-15 07:10:00,
2013-01-15 01:20:00,28.0,23.5,30.25,NE,38,8.0,11.0,83,0.00,,,0.00,Wunderground v.1.15,2013-01-15 07:20:00,
2013-01-15 01:35:00,28.0,23.5,30.24,NE,35,7.0,11.0,83,0.00,,,0.00,Wunderground v.1.15,2013-01-15 07:35:00,
2013-01-15 01:40:00,27.9,23.7,30.24,NE,46,7.0,7.0,84,0.00,,,0.00,Wunderground v.1.15,2013-01-15 07:40:00,
2013-01-15 01:50:00,27.9,23.7,30.24,ENE,58,8.0,11.0,84,0.00,,,0.00,Wunderground v.1.15,2013-01-15 07:50:00,
2013-01-15 02:00:00,27.9,23.7,30.24,NE,46,8.0,11.0,84,0.00,,,0.00,Wunderground v.1.15,2013-01-15 08:00:00,
2013-01-15 02:10:00,27.8,23.6,30.24,NNE,29,8.0,8.0,84,0.00,,,0.00,Wunderground v.1.15,2013-01-15 08:10:00,
2013-01-15 02:20:00,27.7,23.8,30.24,NNE,32,8.0,11.0,85,0.00,,,0.00,Wunderground v.1.15,2013-01-15 08:20:00,
2013-01-15 02:30:00,27.7,23.8,30.23,NNE,26,8.0,12.0,85,0.00,,,0.00,Wunderground v.1.15,2013-01-15 08:30:00,
2013-01-15 02:50:00,27.5,23.6,30.22,NE,45,9.0,9.0,85,0.00,,,0.00,Wunderground v.1.15,2013-01-15 08:50:00,
2013-01-15 03:00:00,27.4,23.5,30.21,NE,40,10.0,10.0,85,0.00,,,0.00,Wunderground v.1.15,2013-01-15 09:00:00,
2013-01-15 03:10:00,27.3,23.4,30.20,NE,38,10.0,10.0,85,0.00,,,0.00,Wunderground v.1.15,2013-01-15 09:10:00,
2013-01-15 03:20:00,27.2,23.3,30.20,ENE,60,8.0,8.0,85,0.00,,,0.00,Wunderground v.1.15,2013-01-15 09:20:00,
2013-01-15 03:30:00,27.2,23.6,30.21,NE,40,7.0,11.0,86,0.00,,,0.00,Wunderground v.1.15,2013-01-15 09:30:00,
2013-01-15 03:40:00,27.1,23.5,30.21,NE,54,7.0,7.0,86,0.00,,,0.00,Wunderground v.1.15,2013-01-15 09:40:00,
2013-01-15 03:50:00,27.1,23.5,30.21,NE,56,8.0,11.0,86,0.00,,,0.00,Wunderground v.1.15,2013-01-15 09:50:00,
2013-01-15 04:00:00,27.1,23.5,30.20,NE,48,7.0,11.0,86,0.00,,,0.00,Wunderground v.1.15,2013-01-15 10:00:00,
2013-01-15 04:10:00,27.0,23.4,30.20,ENE,57,9.0,11.0,86,0.00,,,0.00,Wunderground v.1.15,2013-01-15 10:10:00,
2013-01-15 04:20:00,27.0,23.4,30.20,NE,41,10.0,11.0,86,0.00,,,0.00,Wunderground v.1.15,2013-01-15 10:20:00,
2013-01-15 04:30:00,26.9,23.5,30.19,NE,56,8.0,8.0,87,0.00,,,0.00,Wunderground v.1.15,2013-01-15 10:30:00,
2013-01-15 04:40:00,26.9,23.5,30.19,NNE,26,9.0,11.0,87,0.00,,,0.00,Wunderground v.1.15,2013-01-15 10:40:00,
2013-01-15 04:50:00,26.8,23.4,30.19,NE,34,8.0,8.0,87,0.00,,,0.00,Wunderground v.1.15,2013-01-15 10:50:00,
2013-01-15 05:00:00,26.9,23.5,30.19,NE,41,7.0,7.0,87,0.00,,,0.00,Wunderground v.1.15,2013-01-15 11:00:00,
2013-01-15 05:10:00,26.9,23.5,30.18,ENE,67,7.0,7.0,87,0.00,,,0.00,Wunderground v.1.15,2013-01-15 11:10:00,
2013-01-15 05:20:00,26.9,23.8,30.18,NE,46,8.0,11.0,88,0.00,,,0.00,Wunderground v.1.15,2013-01-15 11:20:00,
2013-01-15 05:30:00,26.9,23.8,30.18,NE,56,7.0,7.0,88,0.00,,,0.00,Wunderground v.1.15,2013-01-15 11:30:00,
2013-01-15 05:40:00,27.0,23.9,30.17,NE,55,8.0,8.0,88,0.00,,,0.00,Wunderground v.1.15,2013-01-15 11:40:00,
2013-01-15 05:50:00,27.1,24.3,30.17,NE,50,8.0,11.0,89,0.00,,,0.00,Wunderground v.1.15,2013-01-15 11:50:00,
2013-01-15 06:05:00,27.2,24.4,30.17,NNE,28,7.0,11.0,89,0.00,,,0.00,Wunderground v.1.15,2013-01-15 12:05:00,
2013-01-15 06:10:00,27.3,24.5,30.18,NE,56,7.0,11.0,89,0.00,,,0.00,Wunderground v.1.15,2013-01-15 12:10:00,
2013-01-15 06:20:00,27.3,24.5,30.18,NE,44,6.0,6.0,89,0.00,,,0.00,Wunderground v.1.15,2013-01-15 12:20:00,
2013-01-15 06:30:00,27.4,24.6,30.19,NE,53,7.0,14.0,89,0.00,,,0.00,Wunderground v.1.15,2013-01-15 12:30:00,
2013-01-15 06:40:00,27.5,25.0,30.20,NE,46,8.0,11.0,90,0.00,,,0.00,Wunderground v.1.15,2013-01-15 12:40:00,
2013-01-15 06:50:00,27.6,25.1,30.20,NE,52,8.0,8.0,90,0.00,,,0.00,Wunderground v.1.15,2013-01-15 12:50:00,
2013-01-15 07:00:00,27.6,25.1,30.19,NNE,15,8.0,11.0,90,0.00,,,0.00,Wunderground v.1.15,2013-01-15 13:00:00,
2013-01-15 07:10:00,27.6,25.1,30.17,NE,49,9.0,15.0,90,0.00,,,0.00,Wunderground v.1.15,2013-01-15 13:10:00,
2013-01-15 07:20:00,27.8,25.2,30.17,ENE,59,9.0,9.0,90,0.00,,,0.00,Wunderground v.1.15,2013-01-15 13:20:00,
2013-01-15 07:30:00,27.9,25.3,30.19,North,5,6.0,11.0,90,0.00,,,0.00,Wunderground v.1.15,2013-01-15 13:30:00,
2013-01-15 07:40:00,28.0,25.4,30.20,NNE,32,8.0,11.0,90,0.00,,,0.00,Wunderground v.1.15,2013-01-15 13:40:00,
2013-01-15 07:50:00,28.2,25.9,30.20,NNE,28,7.0,7.0,91,0.00,,,0.00,Wunderground v.1.15,2013-01-15 13:50:00,
2013-01-15 08:00:00,28.3,26.0,30.21,North,349,6.0,11.0,91,0.00,,,0.00,Wunderground v.1.15,2013-01-15 14:00:00,
2013-01-15 08:10:00,28.7,26.1,30.22,NE,53,6.0,6.0,90,0.00,,,0.00,Wunderground v.1.15,2013-01-15 14:10:00,
2013-01-15 08:20:00,28.6,26.0,30.22,NNE,29,7.0,7.0,90,0.00,,,0.00,Wunderground v.1.15,2013-01-15 14:20:00,
2013-01-15 08:30:00,28.7,26.1,30.20,NE,51,8.0,8.0,90,0.00,,,0.00,Wunderground v.1.15,2013-01-15 14:30:00,
2013-01-15 08:40:00,28.9,26.1,30.19,NE,52,8.0,8.0,89,0.00,,,0.00,Wunderground v.1.15,2013-01-15 14:40:00,
2013-01-15 08:50:00,28.9,26.1,30.19,NNE,25,8.0,8.0,89,0.00,,,0.00,Wunderground v.1.15,2013-01-15 14:50:00,
2013-01-15 09:00:00,28.8,25.7,30.19,NE,46,9.0,11.0,88,0.00,,,0.00,Wunderground v.1.15,2013-01-15 15:00:00,
2013-01-15 09:10:00,28.8,25.7,30.18,NE,46,8.0,11.0,88,0.00,,,0.00,Wunderground v.1.15,2013-01-15 15:10:00,
2013-01-15 09:20:00,28.8,25.7,30.18,NE,46,8.0,8.0,88,0.00,,,0.00,Wunderground v.1.15,2013-01-15 15:20:00,
2013-01-15 09:30:00,28.8,25.4,30.18,NNE,18,8.0,11.0,87,0.00,,,0.00,Wunderground v.1.15,2013-01-15 15:30:00,
2013-01-15 09:40:00,28.8,25.4,30.20,NE,51,8.0,8.0,87,0.00,,,0.00,Wunderground v.1.15,2013-01-15 15:40:00,
2013-01-15 09:50:00,28.8,25.4,30.20,NE,55,7.0,11.0,87,0.00,,,0.00,Wunderground v.1.15,2013-01-15 15:50:00,
2013-01-15 10:00:00,29.0,25.6,30.18,ENE,65,6.0,6.0,87,0.00,,,0.00,Wunderground v.1.15,2013-01-15 16:00:00,
2013-01-15 10:10:00,29.2,25.8,30.15,NE,34,6.0,11.0,87,0.00,,,0.00,Wunderground v.1.15,2013-01-15 16:10:00,
2013-01-15 10:20:00,29.2,25.5,30.15,NNE,29,9.0,11.0,86,0.00,,,0.00,Wunderground v.1.15,2013-01-15 16:20:00,
2013-01-15 10:30:00,29.2,25.5,30.14,NE,53,10.0,10.0,86,0.00,,,0.00,Wunderground v.1.15,2013-01-15 16:30:00,
2013-01-15 10:40:00,29.4,25.7,30.09,NE,44,11.0,14.0,86,0.00,,,0.00,Wunderground v.1.15,2013-01-15 16:40:00,
2013-01-15 10:50:00,29.6,25.9,30.09,NE,40,12.0,12.0,86,0.00,,,0.00,Wunderground v.1.15,2013-01-15 16:50:00,
2013-01-15 11:00:00,30.1,26.4,30.13,ENE,57,7.0,7.0,86,0.00,,,0.00,Wunderground v.1.15,2013-01-15 17:00:00,
2013-01-15 11:10:00,30.1,26.4,30.11,ENE,72,7.0,11.0,86,0.00,,,0.00,Wunderground v.1.15,2013-01-15 17:10:00,
2013-01-15 11:20:00,30.2,26.5,30.11,NNE,32,7.0,7.0,86,0.00,,,0.00,Wunderground v.1.15,2013-01-15 17:20:00,
2013-01-15 11:30:00,30.3,26.6,30.14,North,349,7.0,7.0,86,0.00,,,0.00,Wunderground v.1.15,2013-01-15 17:30:00,
2013-01-15 11:40:00,30.2,26.8,30.16,NW,324,8.0,8.0,87,0.00,,,0.00,Wunderground v.1.15,2013-01-15 17:40:00,
2013-01-15 11:50:00,30.3,27.2,30.16,NNW,340,7.0,11.0,88,0.00,,,0.00,Wunderground v.1.15,2013-01-15 17:50:00,
2013-01-15 12:00:00,30.1,27.0,30.14,NW,318,7.0,7.0,88,0.00,,,0.00,Wunderground v.1.15,2013-01-15 18:00:00,
2013-01-15 12:10:00,29.9,27.1,30.16,NNE,23,6.0,11.0,89,0.00,,,0.00,Wunderground v.1.15,2013-01-15 18:10:00,
2013-01-15 12:20:00,29.8,27.0,30.16,NW,323,8.0,11.0,89,0.00,,,0.00,Wunderground v.1.15,2013-01-15 18:20:00,
2013-01-15 12:30:00,29.6,26.8,30.14,NNW,337,9.0,9.0,89,0.00,,,0.00,Wunderground v.1.15,2013-01-15 18:30:00,
2013-01-15 12:40:00,29.4,26.6,30.13,North,355,9.0,11.0,89,0.00,,,0.00,Wunderground v.1.15,2013-01-15 18:40:00,
2013-01-15 12:50:00,29.4,26.6,30.13,NNW,344,7.0,7.0,89,0.00,,,0.00,Wunderground v.1.15,2013-01-15 18:50:00,
2013-01-15 13:00:00,29.4,26.6,30.13,NNW,345,6.0,6.0,89,0.00,,,0.00,Wunderground v.1.15,2013-01-15 19:00:00,
2013-01-15 13:10:00,29.6,27.0,30.12,NE,49,6.0,11.0,90,0.00,,,0.00,Wunderground v.1.15,2013-01-15 19:10:00,
2013-01-15 13:20:00,29.6,27.0,30.12,NNE,25,8.0,8.0,90,0.00,,,0.00,Wunderground v.1.15,2013-01-15 19:20:00,
2013-01-15 13:30:00,29.6,27.0,30.11,NE,36,6.0,11.0,90,0.00,,,0.00,Wunderground v.1.15,2013-01-15 19:30:00,
2013-01-15 13:40:00,29.7,27.4,30.09,North,10,7.0,11.0,91,0.00,,,0.00,Wunderground v.1.15,2013-01-15 19:40:00,
2013-01-15 13:50:00,29.8,27.5,30.09,NNW,337,6.0,6.0,91,0.00,,,0.00,Wunderground v.1.15,2013-01-15 19:50:00,
2013-01-15 14:00:00,29.8,27.5,30.10,NNW,330,8.0,8.0,91,0.00,,,0.00,Wunderground v.1.15,2013-01-15 20:00:00,
2013-01-15 14:10:00,29.9,27.6,30.11,North,360,6.0,11.0,91,0.00,,,0.00,Wunderground v.1.15,2013-01-15 20:10:00,
2013-01-15 14:20:00,29.9,27.6,30.11,NW,304,7.0,11.0,91,0.00,,,0.00,Wunderground v.1.15,2013-01-15 20:20:00,
2013-01-15 14:30:00,29.9,27.9,30.11,NNW,327,6.0,11.0,92,0.00,,,0.00,Wunderground v.1.15,2013-01-15 20:30:00,
2013-01-15 14:40:00,30.1,28.1,30.10,NNW,346,7.0,7.0,92,0.00,,,0.00,Wunderground v.1.15,2013-01-15 20:40:00,
2013-01-15 14:50:00,29.9,27.9,30.10,NNE,26,8.0,8.0,92,0.00,,,0.00,Wunderground v.1.15,2013-01-15 20:50:00,
2013-01-15 15:00:00,30.1,28.1,30.11,NE,48,7.0,11.0,92,0.00,,,0.00,Wunderground v.1.15,2013-01-15 21:00:00,
2013-01-15 15:10:00,30.1,28.1,30.09,NNE,30,7.0,11.0,92,0.00,,,0.00,Wunderground v.1.15,2013-01-15 21:10:00,
2013-01-15 15:20:00,30.2,28.2,30.09,NE,49,7.0,11.0,92,0.00,,,0.00,Wunderground v.1.15,2013-01-15 21:20:00,
2013-01-15 15:30:00,30.3,28.3,30.09,NE,45,7.0,11.0,92,0.00,,,0.00,Wunderground v.1.15,2013-01-15 21:30:00,
2013-01-15 15:40:00,30.3,28.3,30.09,NNE,27,7.0,7.0,92,0.00,,,0.00,Wunderground v.1.15,2013-01-15 21:40:00,
2013-01-15 15:50:00,30.5,28.5,30.09,NE,38,7.0,11.0,92,0.00,,,0.00,Wunderground v.1.15,2013-01-15 21:50:00,
2013-01-15 16:00:00,30.4,28.4,30.07,NE,35,8.0,8.0,92,0.00,,,0.00,Wunderground v.1.15,2013-01-15 22:00:00,
2013-01-15 16:10:00,30.5,28.5,30.09,ENE,57,6.0,6.0,92,0.00,,,0.00,Wunderground v.1.15,2013-01-15 22:10:00,
2013-01-15 16:20:00,30.6,28.6,30.09,NNE,26,4.0,11.0,92,0.00,,,0.00,Wunderground v.1.15,2013-01-15 22:20:00,
2013-01-15 16:35:00,30.6,28.6,30.05,NE,38,8.0,8.0,92,0.00,,,0.00,Wunderground v.1.15,2013-01-15 22:35:00,
2013-01-15 16:40:00,30.7,28.7,30.08,NE,42,6.0,11.0,92,0.00,,,0.00,Wunderground v.1.15,2013-01-15 22:40:00,
2013-01-15 16:50:00,30.6,28.6,30.08,NNE,30,5.0,5.0,92,0.00,,,0.00,Wunderground v.1.15,2013-01-15 22:50:00,
2013-01-15 17:00:00,30.7,28.7,30.07,NNE,17,5.0,11.0,92,0.00,,,0.00,Wunderground v.1.15,2013-01-15 23:00:00,
2013-01-15 17:10:00,30.7,28.7,30.07,NNE,19,5.0,11.0,92,0.00,,,0.00,Wunderground v.1.15,2013-01-15 23:10:00,
2013-01-15 17:20:00,30.8,28.8,30.07,North,360,4.0,11.0,92,0.00,,,0.00,Wunderground v.1.15,2013-01-15 23:20:00,
2013-01-15 17:30:00,30.8,28.8,30.07,NE,42,4.0,4.0,92,0.00,,,0.00,Wunderground v.1.15,2013-01-15 23:30:00,
2013-01-15 17:40:00,30.8,28.8,30.06,NE,44,5.0,11.0,92,0.00,,,0.00,Wunderground v.1.15,2013-01-15 23:40:00,
2013-01-15 17:50:00,30.9,28.9,30.06,NE,51,4.0,11.0,92,0.00,,,0.00,Wunderground v.1.15,2013-01-15 23:50:00,
2013-01-15 18:00:00,31.0,28.9,30.07,NE,51,4.0,4.0,92,0.00,,,0.00,Wunderground v.1.15,2013-01-16 00:00:00,
2013-01-15 18:10:00,31.0,28.9,30.05,NE,35,5.0,5.0,92,0.00,,,0.00,Wunderground v.1.15,2013-01-16 00:10:00,
2013-01-15 18:20:00,31.1,29.0,30.05,NE,35,5.0,5.0,92,0.00,,,0.00,Wunderground v.1.15,2013-01-16 00:20:00,
2013-01-15 18:30:00,31.2,29.4,30.07,NE,40,3.0,11.0,93,0.00,,,0.00,Wunderground v.1.15,2013-01-16 00:30:00,
2013-01-15 18:40:00,31.4,29.3,30.09,NE,40,2.0,11.0,92,0.00,,,0.00,Wunderground v.1.15,2013-01-16 00:40:00,
2013-01-15 18:50:00,31.4,29.3,30.09,NE,40,0.0,11.0,92,0.00,,,0.00,Wunderground v.1.15,2013-01-16 00:50:00,
2013-01-15 19:00:00,31.4,29.3,30.08,NNE,31,0.0,11.0,92,0.00,,,0.00,Wunderground v.1.15,2013-01-16 01:00:00,
2013-01-15 19:10:00,31.5,29.4,30.09,North,360,0.0,11.0,92,0.00,,,0.00,Wunderground v.1.15,2013-01-16 01:10:00,
2013-01-15 19:20:00,31.5,29.7,30.09,North,5,0.0,11.0,93,0.00,,,0.00,Wunderground v.1.15,2013-01-16 01:20:00,
2013-01-15 19:30:00,31.5,29.7,30.08,North,11,1.0,1.0,93,0.00,,,0.00,Wunderground v.1.15,2013-01-16 01:30:00,
2013-01-15 19:40:00,31.4,29.6,30.07,NNW,346,3.0,11.0,93,0.00,,,0.00,Wunderground v.1.15,2013-01-16 01:40:00,
2013-01-15 19:50:00,31.3,29.5,30.07,NNE,18,3.0,3.0,93,0.00,,,0.00,Wunderground v.1.15,2013-01-16 01:50:00,
2013-01-15 20:00:00,31.3,29.5,30.07,NNE,22,2.0,2.0,93,0.00,,,0.00,Wunderground v.1.15,2013-01-16 02:00:00,
2013-01-15 20:10:00,31.3,29.5,30.08,North,360,1.0,11.0,93,0.00,,,0.00,Wunderground v.1.15,2013-01-16 02:10:00,
2013-01-15 20:20:00,31.3,29.8,30.08,NNW,348,2.0,11.0,94,0.00,,,0.00,Wunderground v.1.15,2013-01-16 02:20:00,
2013-01-15 20:30:00,31.2,29.4,30.09,North,360,3.0,11.0,93,0.00,,,0.00,Wunderground v.1.15,2013-01-16 02:30:00,
2013-01-15 20:40:00,31.3,29.8,30.08,NNE,13,3.0,3.0,94,0.00,,,0.00,Wunderground v.1.15,2013-01-16 02:40:00,
2013-01-15 20:50:00,31.3,29.8,30.08,NNE,24,5.0,5.0,94,0.00,,,0.00,Wunderground v.1.15,2013-01-16 02:50:00,
2013-01-15 21:00:00,31.5,30.0,30.09,NE,34,2.0,2.0,94,0.00,,,0.00,Wunderground v.1.15,2013-01-16 03:00:00,
2013-01-15 21:10:00,31.6,30.1,30.08,NNE,23,3.0,11.0,94,0.00,,,0.00,Wunderground v.1.15,2013-01-16 03:10:00,
2013-01-15 21:20:00,31.6,30.1,30.08,NNE,30,3.0,3.0,94,0.00,,,0.00,Wunderground v.1.15,2013-01-16 03:20:00,
2013-01-15 21:30:00,31.6,30.1,30.07,North,9,4.0,4.0,94,0.00,,,0.00,Wunderground v.1.15,2013-01-16 03:30:00,
2013-01-15 21:40:00,31.6,30.1,30.07,North,9,1.0,1.0,94,0.00,,,0.00,Wunderground v.1.15,2013-01-16 03:40:00,
2013-01-15 21:50:00,31.5,30.0,30.07,North,360,3.0,3.0,94,0.00,,,0.00,Wunderground v.1.15,2013-01-16 03:50:00,
2013-01-15 22:00:00,31.4,29.9,30.07,NNW,342,3.0,11.0,94,0.00,,,0.00,Wunderground v.1.15,2013-01-16 04:00:00,
2013-01-15 22:10:00,31.3,29.8,30.06,NNE,29,3.0,3.0,94,0.00,,,0.00,Wunderground v.1.15,2013-01-16 04:10:00,
2013-01-15 22:20:00,31.3,29.8,30.06,NNE,12,4.0,11.0,94,0.00,,,0.00,Wunderground v.1.15,2013-01-16 04:20:00,
2013-01-15 22:30:00,31.4,30.1,30.05,North,360,1.0,1.0,95,0.00,,,0.00,Wunderground v.1.15,2013-01-16 04:30:00,
2013-01-15 22:40:00,31.2,29.9,30.06,North,349,3.0,3.0,95,0.00,,,0.00,Wunderground v.1.15,2013-01-16 04:40:00,
2013-01-15 22:50:00,31.2,29.9,30.06,NE,45,2.0,2.0,95,0.00,,,0.00,Wunderground v.1.15,2013-01-16 04:50:00,
2013-01-15 23:00:00,31.2,29.9,30.08,NNE,24,0.0,11.0,95,0.00,,,0.00,Wunderground v.1.15,2013-01-16 05:00:00,
2013-01-15 23:05:00,31.0,29.5,30.08,NNW,342,1.0,11.0,94,0.00,,,0.00,Wunderground v.1.15,2013-01-16 05:05:00,
2013-01-15 23:10:00,30.9,29.4,30.09,NNW,346,3.0,11.0,94,0.00,,,0.00,Wunderground v.1.15,2013-01-16 05:10:00,
2013-01-15 23:20:00,31.0,29.5,30.09,North,355,3.0,11.0,94,0.00,,,0.00,Wunderground v.1.15,2013-01-16 05:20:00,
2013-01-15 23:25:00,30.9,29.4,30.09,NW,322,3.0,11.0,94,0.00,,,0.00,Wunderground v.1.15,2013-01-16 05:25:00,
2013-01-15 23:30:00,30.8,29.3,30.09,North,351,3.0,11.0,94,0.00,,,0.00,Wunderground v.1.15,2013-01-16 05:30:00,
2013-01-15 23:40:00,30.5,29.0,30.07,NNW,345,4.0,11.0,94,0.00,,,0.00,Wunderground v.1.15,2013-01-16 05:40:00,
2013-01-15 23:50:00,30.4,28.9,30.07,NNW,337,2.0,2.0,94,0.00,,,0.00,Wunderground v.1.15,2013-01-16 05:50:00,